Location: Zagreb
(45.8000°N, 16.0000°E)
Time: 19:41:05
(UTC+02:00)

SR - Pass Details

Date: 12 August 2020
Orbit: 583 x 873 km, 66.7° (Epoch: 28 September)

Event Time Altitude Azimuth Distance (km) Brightness Sun altitude
Rises 22:23:34 0° 221° (SW) 2,964 ? -19.9°
Reaches altitude 10° 22:25:57 10° 225° (SW) 2,017 ? -20.2°
Maximum altitude 22:30:24 60° 306° (NW) 700 ? -20.7°
Drops below altitude 10° 22:34:40 10° 27° (NNE) 1,927 ? -21.1°
Sets 22:36:54 0° 31° (NNE) 2,820 ? -21.4°
